SCP
0 0 0 0 0 0 0 0 0 0 0 0 0 0 0 0 0 0 0 0 0 0 0 0 0 0 0 0 0 0 0 0 0 0 0 0 0 0 0 0 0 0 0
0 0 0 0 0 0 0 0 0 0 0 0 0 0 0 0 0 0 0 0 0 0 0 0 0 0 0 0 0 0 0 0 0 0 0 0 0 0 0 0 0 0 0
0 0 0 0 0 0 0 0 0 0 0 0 0 0 0 0 0 0 0 0 0 0 0 0 0 0 0 0 0 0 0 0 0 0 0 0 0 0 0 0 0 0 0
0 0 0 0 0 0 0 0 0 0 0 0 0 0 0 0 0 0 0 0 0 0 0 0 0 0 0 0 0 0 0 0 0 0 0 0 0 0 0 0 0 0 0
0 0 0 0 0 0 0 0 0 0 0 0 0 0 0 0 0 0 0 0 0 0 0 0 0 0 0 0 0 0 0 0 0 0 0 0 0 0 0 0 0 0 0
0 0 0 0 0 0 0 0 0 0 0 0 0 0 0 0 0 0 0 0 0 0 0 0 0 0 0 0 0 0 0 0 0 0 0 0 0 0 0 0 0 0 0
0 0 0 0 0 0 0 0 0 0 0 0 0 0 0 0 0 0 0 0 0 0 0 0 0 0 0 0 0 0 0 0 0 0 0 0 0 0 0 0 0 0 -0
0 0 0 0 0 0 0 0 0 0 0 0 0 -0 0 0 0 0 0 0 0 0 0 0 0 0 0 0 0 0 0 0 0 0 0 0 0 0 0 0 0 0 0
0 0 0 0 0 0 0 0 0 0 0 -0 0 -0 -0 0 0 0 0 0 0 0 0 0 0 0 0 0 0 0 0 0 0 0 0 0 0 0 0 0 0 0 0
0 0 0 0 0 0 0 0 0 0 0 0 -0 -0 -0 -0 -0 -0 0 0 0 0 0 0 0 0 0 0 0 0 0 0 0 0 0 0 0 0 0 0 0 0 0
0 0 0 0 0 0 0 0 0 0 0 0 0 0 0 -0 0 -0 -0 0 0 -0 0 0 0 0 0 0 0 0 0 0 0 0 0 0 0 0 0 0 0 0 0
0 0 0 0 0 0 0 0 0 0 0 0 0 0 0 0 0 0 0 0 0 0 -0 -0 -0 -0 -0 0 0 0 0 0 0 0 0 0 0 0 0 0 0 0 0
-0 0 0 0 0 0 0 0 0 0 0 0 0 0 0 0 0 0 0 0 -0 -0 -0 -0 -0 -0 -0 -0 -0 -0 0 0 0 0 0 0 0 0 0 0 0 0 0
0 0 0 0 0 0 0 0 0 0 0 0 0 0 0 0 0 0 0 -0 -0 -0 -0 -0 -0 -0 -0 -0 -0 -0 -0 -0 0 0 0 0 0 0 0 0 0 0 0
0 0 0 0 0 0 0 0 0 0 0 0 0 0 0 0 0 0 0 0 -0 -0 -0 -0 -0 0 0 0 0 -0 -0 -0 -0 -0 -0 0 0 0 0 0 0 0 0
0 0 0 0 0 0 0 0 0 0 0 0 0 0 0 0 0 0 0 0 0 0 0 0 0 0 0 -0 -0 -0 -0 -0 -0 -0 -0 -0 0 0 0 0 0 0 0
0 0 0 0 0 0 0 0 0 0 0 0 0 0 0 0 0 0 0 0 0 0 0 0 0 0 0 0 0 -0 -0 -0 -0 -0 -0 -0 0 0 0 0 0 0 0
0 0 0 0 0 0 0 0 0 0 0 0 0 0 0 0 0 0 0 0 0 0 0 0 0 0 0 -0 -0 -0 -0 -0 -0 -0 -0 0 -0 0 0 0 0 0 0
0 0 0 0 0 0 0 0 0 0 0 0 0 0 0 0 0 0 0 0 0 0 0 0 0 0 0 -0 -0 -0 -0 -0 -0 -0 -0 -0 -0 0 0 0 0 0 0
0 0 0 0 0 0 0 0 0 0 0 0 0 0 0 0 0 0 0 0 0 0 0 0 0 0 0 -0 -0 -0 -0 -0 -0 -0 -0 -0 -0 0 0 0 0 0 0
0 0 0 0 0 0 0 0 0 0 0 0 0 0 0 0 0 0 0 0 0 0 0 0 0 0 0 -0 -0 -0 -0 -0 -0 -0 -0 -0 -0 0 0 0 0 0 0
0 0 0 0 0 0 0 0 0 0 0 0 0 0 0 0 0 0 0 0 0 0 0 0 0 0 0 0 -0 -0 -0 -0 -0 -0 -0 -0 -0 -0 0 0 0 0 0
0 0 0 0 0 0 0 0 0 0 0 0 0 0 0 0 0 0 0 0 0 0 0 0 0 0 0 0 0 0 0 0 -0 0 -0 -0 -0 -0 0 0 0 0 0
0 0 0 0 0 0 0 0 0 0 0 0 0 0 0 0 0 0 0 0 0 0 0 0 0 0 0 0 0 0 0 0 0 0 0 -0 -0 -0 -0 0 0 0 0
0 0 0 0 0 0 0 0 0 0 0 0 0 0 0 0 0 0 0 0 0 0 0 0 0 0 0 0 0 0 0 -0 0 -0 0 -0 0 -0 -0 0 -0 0 0
0 0 0 0 0 0 0 0 0 0 0 0 0 0 0 0 0 0 0 0 0 0 0 0 0 0 0 0 0 0 0 0 0 -0 0 -0 0 -0 -0 0 0 0 0
Wind_Speed_500mb
20 21 21 20 21 21 19 19 18 16 16 19 23 26 27 29 28 29 30 35 34 41 46 49 48 46 39 40 46 52 57 61 64 69 69 68 65 65 62 59 55 55 54
24 24 24 24 23 23 23 23 23 21 21 20 18 18 18 20 20 16 14 29 36 34 30 29 37 41 47 46 40 37 38 43 50 51 68 76 76 71 71 68 64 63 60
30 30 31 31 31 31 30 29 27 25 23 20 17 18 18 15 12 12 12 22 27 28 31 34 34 41 40 43 47 46 41 37 33 42 53 43 70 79 78 79 72 72 69
29 30 31 32 33 33 33 33 33 33 33 29 21 17 17 13 20 18 18 20 25 28 30 32 37 40 44 44 47 49 49 54 54 42 57 55 40 44 60 84 87 80 76
29 29 31 32 33 35 36 36 36 37 39 35 22 17 15 13 27 19 21 23 29 28 29 28 28 30 36 44 48 54 57 59 64 64 64 63 65 62 47 34 64 93 85
27 28 29 31 32 33 34 35 36 37 41 41 26 17 13 6 33 22 30 31 39 35 35 36 33 31 31 33 37 42 49 56 62 67 69 68 70 73 66 66 79 48 93
26 28 30 31 33 35 38 39 39 39 42 43 32 24 14 9 37 25 25 34 47 45 44 44 43 43 40 39 44 49 53 55 57 60 63 69 72 70 69 75 76 87 100
27 30 32 34 36 37 39 42 44 45 43 48 47 20 14 4 33 19 28 33 50 48 50 48 51 48 52 52 54 53 56 59 63 65 65 64 65 71 75 77 75 71 64
28 31 32 34 36 37 40 42 43 44 41 42 42 30 12 11 32 16 29 34 53 50 50 40 49 48 58 63 68 65 66 65 65 66 70 72 70 69 70 74 76 73 71
27 29 30 32 33 35 37 40 40 41 39 39 32 29 20 16 13 21 32 24 52 52 54 41 50 47 58 65 71 73 77 77 75 73 70 72 75 74 72 71 70 75 74
25 28 30 30 31 34 35 36 36 37 36 34 33 31 26 20 13 19 25 51 52 43 47 46 52 53 66 74 79 81 81 81 80 81 81 80 75 75 78 76 73 73 76
24 27 29 30 31 32 33 34 34 34 34 31 29 28 27 24 27 23 35 47 51 58 32 37 49 56 68 78 78 82 82 84 86 89 88 83 81 81 79 79 78 76 75
23 26 28 30 31 32 33 34 33 34 33 32 30 27 26 24 26 26 32 40 46 52 29 21 43 58 72 82 86 90 93 93 90 89 89 93 91 83 81 83 82 80 82
23 25 28 30 30 32 33 34 34 34 34 32 31 29 27 25 27 28 29 36 45 29 28 40 39 64 77 83 88 96 102 104 103 97 89 87 90 93 89 81 83 83 82
25 27 28 30 31 33 34 35 35 35 35 34 32 31 28 26 29 29 30 29 28 29 39 32 62 68 74 78 83 93 100 106 109 108 105 97 89 88 91 91 83 81 79
26 27 28 30 31 33 35 35 36 37 37 35 34 33 31 30 32 31 30 32 31 32 34 57 67 74 75 81 83 88 95 103 109 113 112 106 100 91 90 91 89 82 79
29 29 30 32 33 34 35 36 37 38 38 37 36 35 34 34 34 34 34 37 39 38 52 71 72 75 78 86 88 90 96 102 111 113 117 113 107 100 93 92 87 82 83
32 31 32 34 35 36 37 38 38 39 39 37 37 37 36 37 37 37 39 43 43 45 54 74 77 80 83 89 94 98 101 105 110 113 117 117 115 106 97 92 90 87 81
32 32 32 35 37 38 39 39 40 41 40 39 39 40 39 40 41 42 45 47 47 50 58 67 82 79 88 92 99 100 105 112 116 118 120 116 117 110 107 102 93 86 80
33 32 34 37 39 41 42 42 43 43 43 42 42 43 42 43 45 47 50 50 50 57 59 67 76 88 91 92 97 103 116 116 126 125 121 118 121 114 108 100 92 84 79
36 36 39 41 42 44 45 45 46 47 47 46 46 46 47 48 50 51 53 53 55 57 60 61 75 87 94 99 92 95 105 123 126 109 127 128 126 117 107 103 98 86 78
39 42 45 47 49 49 48 48 51 51 51 51 50 50 50 52 53 53 54 54 54 54 55 52 70 78 89 87 90 98 108 116 115 125 128 135 123 123 112 106 92 89 85
41 45 49 53 56 56 54 53 54 56 56 54 55 54 55 54 55 55 56 57 53 52 39 52 66 74 82 76 91 100 103 106 112 120 123 130 125 122 104 100 97 95 87
47 52 57 59 62 62 58 57 58 61 61 59 58 57 58 57 55 56 59 58 55 53 59 61 68 75 66 79 80 87 92 101 110 113 114 113 115 103 111 117 105 81 76
57 61 64 66 67 64 61 61 61 63 64 64 62 61 61 61 57 56 55 55 57 58 65 68 71 65 72 73 74 85 92 98 113 114 115 80 97 126 118 113 102 91 90
60 62 66 69 69 67 62 63 62 65 67 67 65 65 64 63 58 49 47 50 54 64 72 73 71 73 74 76 76 78 85 91 98 87 110 95 113 91 83 121 112 109 94
Wind_Direction_500mb
46 42 37 32 29 24 19 15 4 352 334 311 298 292 286 280 280 284 285 282 278 274 272 269 269 270 280 285 283 284 285 286 289 290 286 287 288 289 289 290 292 293 292
49 46 41 36 32 27 21 16 10 7 4 356 347 334 319 299 299 307 322 295 283 285 279 278 273 275 270 271 277 284 286 285 279 286 280 283 283 284 284 284 286 289 290
55 51 48 44 41 39 36 35 31 25 14 2 353 360 4 9 358 358 313 296 296 293 292 295 292 290 296 287 282 277 273 279 283 286 280 287 272 279 281 279 278 281 284
49 46 45 42 40 38 36 36 34 34 28 17 15 14 30 18 39 31 1 343 333 323 313 307 301 293 295 302 300 299 299 294 286 321 285 282 294 278 274 271 278 272 276
38 37 36 34 32 30 27 27 26 26 24 23 30 18 46 51 41 29 21 10 5 355 348 339 332 321 307 302 301 299 297 291 290 287 282 279 283 282 298 289 287 269 272
34 34 33 31 30 29 28 26 24 26 25 22 34 48 40 79 26 25 29 28 17 14 9 2 355 351 345 336 329 317 307 304 301 297 294 291 286 282 277 273 280 299 265
31 31 30 28 27 27 26 25 25 23 24 28 39 58 28 30 12 30 24 17 20 20 15 14 10 6 5 359 352 345 337 327 320 315 307 298 293 288 285 277 279 276 281
31 30 29 28 27 26 24 24 24 26 24 24 28 39 10 29 351 16 358 1 10 14 15 14 13 14 10 6 2 356 349 341 336 330 322 313 307 297 289 284 285 280 279
30 28 27 25 24 23 22 22 22 23 25 24 28 40 11 349 353 314 349 357 353 6 11 8 11 8 6 2 358 354 353 347 342 335 331 327 321 313 305 293 283 281 276
26 24 24 23 22 22 21 21 20 21 22 21 24 31 25 3 343 324 337 342 349 357 2 4 6 4 2 360 354 352 348 346 343 340 335 329 324 320 314 307 299 287 280
21 19 19 19 19 19 18 16 16 16 16 15 14 9 7 20 335 326 323 333 345 355 357 1 0 357 357 357 353 350 346 342 340 338 335 332 328 321 317 312 303 292 285
13 13 13 13 13 12 11 10 9 8 8 7 5 2 359 1 339 341 325 334 334 347 13 346 346 353 352 353 351 347 346 345 343 340 335 331 327 325 320 314 309 301 288
1 2 4 4 3 3 2 2 0 359 358 357 354 353 348 343 337 335 331 329 328 346 339 347 352 340 347 352 352 350 349 346 343 340 335 332 330 325 322 317 311 306 295
348 350 352 354 354 354 353 353 352 350 349 348 346 343 341 335 333 333 330 330 334 334 335 344 338 344 347 349 351 350 348 347 343 340 337 331 327 325 322 317 312 308 304
335 337 340 343 344 345 344 344 343 341 341 339 337 334 334 328 327 328 326 330 328 322 325 337 324 340 343 344 348 347 345 344 343 341 339 334 328 322 318 317 314 308 306
322 322 326 331 333 334 335 335 334 333 332 331 329 327 325 320 324 323 322 324 322 311 299 314 328 332 337 340 343 341 342 341 341 340 337 335 331 323 318 314 312 309 303
315 312 315 320 323 325 326 326 326 325 324 323 322 320 318 317 319 319 317 321 321 318 306 316 322 329 332 334 336 339 339 338 339 338 335 335 331 325 319 315 311 308 307
310 305 305 310 313 316 318 318 319 318 317 316 315 314 313 313 314 314 314 318 318 317 313 314 322 326 327 332 334 335 335 336 335 337 335 334 330 327 322 315 313 309 307
303 298 298 301 304 307 309 310 311 312 311 309 310 309 308 309 309 309 313 315 315 313 315 315 317 320 325 331 332 332 334 334 334 334 335 332 329 327 322 317 315 310 308
298 295 294 296 299 300 302 303 303 306 305 304 305 305 305 306 305 308 310 312 312 313 315 315 314 319 325 330 330 333 331 333 331 332 335 331 330 324 321 319 314 312 309
296 294 293 294 296 297 297 296 297 299 301 299 300 302 303 303 304 304 307 310 312 312 313 315 315 319 323 328 331 331 326 329 330 334 332 327 326 323 322 318 317 316 313
292 292 294 294 294 295 295 292 292 293 295 294 296 299 300 301 302 304 306 307 309 308 308 308 313 315 320 323 329 326 328 329 325 332 329 324 326 322 320 319 318 314 313
288 293 294 293 291 290 291 290 288 288 289 291 293 296 297 297 299 300 301 304 304 305 293 302 306 314 315 323 325 325 326 325 323 328 329 320 325 320 321 316 315 317 317
288 292 293 293 288 285 285 286 284 284 286 289 289 291 292 293 294 296 297 300 303 302 300 309 308 312 315 318 322 320 321 324 323 328 329 313 324 322 318 314 313 314 317
286 288 288 287 284 282 279 282 279 280 282 286 288 289 290 290 292 290 292 299 303 298 303 306 307 311 314 319 321 322 327 328 326 327 327 321 317 315 317 315 317 311 315
289 290 289 287 284 279 275 277 276 276 279 284 288 289 290 292 290 286 288 297 300 294 302 305 309 312 315 319 322 324 328 326 325 322 324 318 321 322 319 316 311 313 316
Wind_Speed_850mb
20 21 21 20 21 21 19 19 18 16 16 19 23 26 27 29 28 29 30 35 34 41 46 49 48 46 39 40 46 52 57 61 64 69 69 68 65 65 62 59 55 55 54
24 24 24 24 23 23 23 23 23 21 21 20 18 18 18 20 20 16 14 29 36 34 30 29 37 41 47 46 40 37 38 43 50 51 68 76 76 71 71 68 64 63 60
30 30 31 31 31 31 30 29 27 25 23 20 17 18 18 15 12 12 12 22 27 28 31 34 34 41 40 43 47 46 41 37 33 42 53 43 70 79 78 79 72 72 69
29 30 31 32 33 33 33 33 33 33 33 29 21 17 17 13 20 18 18 20 25 28 30 32 37 40 44 44 47 49 49 54 54 42 57 55 40 44 60 84 87 80 76
29 29 31 32 33 35 36 36 36 37 39 35 22 17 15 13 27 19 21 23 29 28 29 28 28 30 36 44 48 54 57 59 64 64 64 63 65 62 47 34 64 93 85
27 28 29 31 32 33 34 35 36 37 41 41 26 17 13 6 33 22 30 31 39 35 35 36 33 31 31 33 37 42 49 56 62 67 69 68 70 73 66 66 79 48 93
26 28 30 31 33 35 38 39 39 39 42 43 32 24 14 9 37 25 25 34 47 45 44 44 43 43 40 39 44 49 53 55 57 60 63 69 72 70 69 75 76 87 100
27 30 32 34 36 37 39 42 44 45 43 48 47 20 14 4 33 19 28 33 50 48 50 48 51 48 52 52 54 53 56 59 63 65 65 64 65 71 75 77 75 71 64
28 31 32 34 36 37 40 42 43 44 41 42 42 30 12 11 32 16 29 34 53 50 50 40 49 48 58 63 68 65 66 65 65 66 70 72 70 69 70 74 76 73 71
27 29 30 32 33 35 37 40 40 41 39 39 32 29 20 16 13 21 32 24 52 52 54 41 50 47 58 65 71 73 77 77 75 73 70 72 75 74 72 71 70 75 74
25 28 30 30 31 34 35 36 36 37 36 34 33 31 26 20 13 19 25 51 52 43 47 46 52 53 66 74 79 81 81 81 80 81 81 80 75 75 78 76 73 73 76
24 27 29 30 31 32 33 34 34 34 34 31 29 28 27 24 27 23 35 47 51 58 32 37 49 56 68 78 78 82 82 84 86 89 88 83 81 81 79 79 78 76 75
23 26 28 30 31 32 33 34 33 34 33 32 30 27 26 24 26 26 32 40 46 52 29 21 43 58 72 82 86 90 93 93 90 89 89 93 91 83 81 83 82 80 82
23 25 28 30 30 32 33 34 34 34 34 32 31 29 27 25 27 28 29 36 45 29 28 40 39 64 77 83 88 96 102 104 103 97 89 87 90 93 89 81 83 83 82
25 27 28 30 31 33 34 35 35 35 35 34 32 31 28 26 29 29 30 29 28 29 39 32 62 68 74 78 83 93 100 106 109 108 105 97 89 88 91 91 83 81 79
26 27 28 30 31 33 35 35 36 37 37 35 34 33 31 30 32 31 30 32 31 32 34 57 67 74 75 81 83 88 95 103 109 113 112 106 100 91 90 91 89 82 79
29 29 30 32 33 34 35 36 37 38 38 37 36 35 34 34 34 34 34 37 39 38 52 71 72 75 78 86 88 90 96 102 111 113 117 113 107 100 93 92 87 82 83
32 31 32 34 35 36 37 38 38 39 39 37 37 37 36 37 37 37 39 43 43 45 54 74 77 80 83 89 94 98 101 105 110 113 117 117 115 106 97 92 90 87 81
32 32 32 35 37 38 39 39 40 41 40 39 39 40 39 40 41 42 45 47 47 50 58 67 82 79 88 92 99 100 105 112 116 118 120 116 117 110 107 102 93 86 80
33 32 34 37 39 41 42 42 43 43 43 42 42 43 42 43 45 47 50 50 50 57 59 67 76 88 91 92 97 103 116 116 126 125 121 118 121 114 108 100 92 84 79
36 36 39 41 42 44 45 45 46 47 47 46 46 46 47 48 50 51 53 53 55 57 60 61 75 87 94 99 92 95 105 123 126 109 127 128 126 117 107 103 98 86 78
39 42 45 47 49 49 48 48 51 51 51 51 50 50 50 52 53 53 54 54 54 54 55 52 70 78 89 87 90 98 108 116 115 125 128 135 123 123 112 106 92 89 85
41 45 49 53 56 56 54 53 54 56 56 54 55 54 55 54 55 55 56 57 53 52 39 52 66 74 82 76 91 100 103 106 112 120 123 130 125 122 104 100 97 95 87
47 52 57 59 62 62 58 57 58 61 61 59 58 57 58 57 55 56 59 58 55 53 59 61 68 75 66 79 80 87 92 101 110 113 114 113 115 103 111 117 105 81 76
57 61 64 66 67 64 61 61 61 63 64 64 62 61 61 61 57 56 55 55 57 58 65 68 71 65 72 73 74 85 92 98 113 114 115 80 97 126 118 113 102 91 90
60 62 66 69 69 67 62 63 62 65 67 67 65 65 64 63 58 49 47 50 54 64 72 73 71 73 74 76 76 78 85 91 98 87 110 95 113 91 83 121 112 109 94
Wind_Direction_850mb
46 42 37 32 29 24 19 15 4 352 334 311 298 292 286 280 280 284 285 282 278 274 272 269 269 270 280 285 283 284 285 286 289 290 286 287 288 289 289 290 292 293 292
49 46 41 36 32 27 21 16 10 7 4 356 347 334 319 299 299 307 322 295 283 285 279 278 273 275 270 271 277 284 286 285 279 286 280 283 283 284 284 284 286 289 290
55 51 48 44 41 39 36 35 31 25 14 2 353 360 4 9 358 358 313 296 296 293 292 295 292 290 296 287 282 277 273 279 283 286 280 287 272 279 281 279 278 281 284
49 46 45 42 40 38 36 36 34 34 28 17 15 14 30 18 39 31 1 343 333 323 313 307 301 293 295 302 300 299 299 294 286 321 285 282 294 278 274 271 278 272 276
38 37 36 34 32 30 27 27 26 26 24 23 30 18 46 51 41 29 21 10 5 355 348 339 332 321 307 302 301 299 297 291 290 287 282 279 283 282 298 289 287 269 272
34 34 33 31 30 29 28 26 24 26 25 22 34 48 40 79 26 25 29 28 17 14 9 2 355 351 345 336 329 317 307 304 301 297 294 291 286 282 277 273 280 299 265
31 31 30 28 27 27 26 25 25 23 24 28 39 58 28 30 12 30 24 17 20 20 15 14 10 6 5 359 352 345 337 327 320 315 307 298 293 288 285 277 279 276 281
31 30 29 28 27 26 24 24 24 26 24 24 28 39 10 29 351 16 358 1 10 14 15 14 13 14 10 6 2 356 349 341 336 330 322 313 307 297 289 284 285 280 279
30 28 27 25 24 23 22 22 22 23 25 24 28 40 11 349 353 314 349 357 353 6 11 8 11 8 6 2 358 354 353 347 342 335 331 327 321 313 305 293 283 281 276
26 24 24 23 22 22 21 21 20 21 22 21 24 31 25 3 343 324 337 342 349 357 2 4 6 4 2 360 354 352 348 346 343 340 335 329 324 320 314 307 299 287 280
21 19 19 19 19 19 18 16 16 16 16 15 14 9 7 20 335 326 323 333 345 355 357 1 0 357 357 357 353 350 346 342 340 338 335 332 328 321 317 312 303 292 285
13 13 13 13 13 12 11 10 9 8 8 7 5 2 359 1 339 341 325 334 334 347 13 346 346 353 352 353 351 347 346 345 343 340 335 331 327 325 320 314 309 301 288
1 2 4 4 3 3 2 2 0 359 358 357 354 353 348 343 337 335 331 329 328 346 339 347 352 340 347 352 352 350 349 346 343 340 335 332 330 325 322 317 311 306 295
348 350 352 354 354 354 353 353 352 350 349 348 346 343 341 335 333 333 330 330 334 334 335 344 338 344 347 349 351 350 348 347 343 340 337 331 327 325 322 317 312 308 304
335 337 340 343 344 345 344 344 343 341 341 339 337 334 334 328 327 328 326 330 328 322 325 337 324 340 343 344 348 347 345 344 343 341 339 334 328 322 318 317 314 308 306
322 322 326 331 333 334 335 335 334 333 332 331 329 327 325 320 324 323 322 324 322 311 299 314 328 332 337 340 343 341 342 341 341 340 337 335 331 323 318 314 312 309 303
315 312 315 320 323 325 326 326 326 325 324 323 322 320 318 317 319 319 317 321 321 318 306 316 322 329 332 334 336 339 339 338 339 338 335 335 331 325 319 315 311 308 307
310 305 305 310 313 316 318 318 319 318 317 316 315 314 313 313 314 314 314 318 318 317 313 314 322 326 327 332 334 335 335 336 335 337 335 334 330 327 322 315 313 309 307
303 298 298 301 304 307 309 310 311 312 311 309 310 309 308 309 309 309 313 315 315 313 315 315 317 320 325 331 332 332 334 334 334 334 335 332 329 327 322 317 315 310 308
298 295 294 296 299 300 302 303 303 306 305 304 305 305 305 306 305 308 310 312 312 313 315 315 314 319 325 330 330 333 331 333 331 332 335 331 330 324 321 319 314 312 309
296 294 293 294 296 297 297 296 297 299 301 299 300 302 303 303 304 304 307 310 312 312 313 315 315 319 323 328 331 331 326 329 330 334 332 327 326 323 322 318 317 316 313
292 292 294 294 294 295 295 292 292 293 295 294 296 299 300 301 302 304 306 307 309 308 308 308 313 315 320 323 329 326 328 329 325 332 329 324 326 322 320 319 318 314 313
288 293 294 293 291 290 291 290 288 288 289 291 293 296 297 297 299 300 301 304 304 305 293 302 306 314 315 323 325 325 326 325 323 328 329 320 325 320 321 316 315 317 317
288 292 293 293 288 285 285 286 284 284 286 289 289 291 292 293 294 296 297 300 303 302 300 309 308 312 315 318 322 320 321 324 323 328 329 313 324 322 318 314 313 314 317
286 288 288 287 284 282 279 282 279 280 282 286 288 289 290 290 292 290 292 299 303 298 303 306 307 311 314 319 321 322 327 328 326 327 327 321 317 315 317 315 317 311 315
289 290 289 287 284 279 275 277 276 276 279 284 288 289 290 292 290 286 288 297 300 294 302 305 309 312 315 319 322 324 328 326 325 322 324 318 321 322 319 316 311 313 316